Theta_e
337 336 334 333 333 330 325 322 318 317 315 319 317 315 321 322 320 320 319 318 317 316 316 316 316 316 316 315 314 309 309 311
341 337 336 334 331 325 321 319 317 317 320 322 321 322 323 323 323 321 320 319 318 318 317 316 316 316 316 316 316 315 314 312
337 336 333 328 325 321 319 317 317 320 323 324 323 324 324 324 323 321 320 319 318 318 319 318 317 317 317 317 317 317 316 315
334 330 326 324 321 318 316 317 321 325 325 324 324 325 325 322 321 319 318 318 318 318 318 318 318 318 317 317 318 318 317 317
326 323 320 318 317 316 320 322 324 327 326 325 326 326 324 319 318 317 318 318 319 319 318 318 318 317 315 315 316 317 318 318
324 322 319 318 317 320 323 326 325 326 326 325 324 324 322 319 318 318 319 319 318 317 317 317 315 315 314 313 313 314 315 316
326 325 322 322 320 324 326 326 327 327 327 326 324 325 322 319 320 319 318 315 314 314 313 313 313 313 313 312 310 309 309 310
329 328 325 324 326 324 326 328 328 328 328 328 327 325 323 320 320 316 312 312 312 311 311 311 311 310 310 308 307 305 304 304
330 330 330 327 328 327 327 327 328 329 329 329 327 322 321 318 313 311 311 311 311 311 310 309 307 306 306 305 305 304 303 302
330 330 329 327 326 327 327 327 324 325 324 320 317 316 313 312 311 311 310 310 310 308 306 306 306 304 304 303 303 302 302 301
329 328 326 323 324 324 320 318 317 315 315 314 312 312 311 311 311 310 309 308 306 305 303 303 302 302 301 301 301 300 300 304
327 326 325 324 320 318 313 313 313 313 313 312 311 311 311 310 307 306 305 304 303 302 301 300 300 300 299 299 297 300 302 303
326 326 325 318 315 317 315 313 312 312 311 311 310 308 307 306 304 303 301 301 300 300 299 299 299 300 300 298 298 302 300 300
324 319 315 317 317 317 315 312 312 311 309 308 305 304 303 302 301 300 300 300 299 298 297 297 298 300 301 301 299 299 301 297
315 316 315 316 315 311 311 311 311 311 308 304 302 301 301 300 301 303 301 299 299 298 297 297 298 298 300 299 298 297 298 298
311 311 311 311 311 311 311 310 310 308 305 302 302 302 302 302 303 304 302 300 298 298 297 297 297 297 297 298 296 297 297 296
311 311 311 311 310 310 310 309 307 304 302 304 305 305 303 302 302 302 300 298 297 297 296 295 294 292 293 293 293 294 295 296
311 311 311 310 309 308 308 307 306 304 304 304 305 304 303 302 302 300 298 296 295 293 292 291 290 289 289 290 291 292 292 292
310 309 307 306 306 306 305 304 304 304 304 304 304 303 302 301 300 298 295 293 292 292 290 289 289 289 288 288 289 290 291 291
307 306 305 305 305 305 304 304 304 303 303 303 303 302 301 300 299 295 293 296 293 290 290 289 288 288 288 288 289 289 289 288
Wind_Speed
19 18 17 17 15 14 13 12 11 10 10 10 11 11 12 12 12 12 13 12 12 14 16 16 16 17 18 19 18 18 16 14
18 18 17 16 14 14 13 12 10 9 11 11 12 10 9 9 8 8 9 8 8 8 10 13 15 15 16 18 18 18 17 18
18 18 17 16 16 15 13 12 11 12 13 10 9 9 8 6 5 5 5 5 5 4 5 7 9 11 12 13 16 18 19 18
21 19 18 18 16 15 14 14 13 11 11 9 9 7 5 5 3 3 3 3 4 5 5 6 8 10 11 12 12 13 16 18
21 19 19 17 16 15 16 14 14 11 10 10 8 5 4 4 4 2 3 4 5 6 5 7 9 12 14 14 12 14 16 17
23 20 18 17 16 16 15 13 12 10 9 8 5 3 3 4 2 3 3 4 6 8 8 10 12 13 15 14 12 11 11 13
24 21 19 17 16 15 13 11 9 8 7 5 5 4 2 2 1 2 3 6 8 9 10 12 12 13 15 13 11 12 13 13
21 19 15 12 9 10 10 11 10 9 9 7 5 4 4 2 1 1 5 9 12 13 14 12 10 11 9 9 12 14 17 18
19 17 12 10 9 8 12 13 13 13 12 10 6 3 1 2 2 3 8 11 12 10 9 8 9 9 11 12 13 16 19 22
16 16 10 10 8 7 9 12 10 3 2 4 6 7 4 3 6 11 13 11 9 8 8 9 11 13 14 17 16 20 20 18
15 15 16 11 13 5 4 7 9 11 9 6 6 6 7 11 12 12 9 8 7 9 11 13 13 15 18 16 18 20 20 9
19 18 12 8 4 12 16 12 10 7 5 4 5 7 9 10 11 9 8 8 9 11 12 13 15 17 17 17 20 13 8 9
16 14 11 15 19 14 10 8 5 4 3 3 3 5 7 8 6 7 8 11 11 11 14 16 17 19 10 22 13 1 11 13
16 17 19 16 12 6 4 6 6 4 3 4 4 5 6 6 8 11 13 12 11 11 13 15 11 12 8 8 3 8 5 21
22 19 16 10 6 7 5 3 3 2 1 4 6 6 7 8 10 14 14 11 8 8 12 15 8 7 6 3 3 3 9 10
17 14 11 9 5 3 1 3 2 1 2 5 4 8 12 13 19 22 16 10 5 8 8 11 9 8 6 5 7 7 2 6
9 8 6 3 2 3 4 2 2 4 5 3 9 19 22 17 17 21 11 2 6 7 7 10 11 9 7 9 10 11 12 5
7 5 6 7 6 9 10 7 5 2 6 11 14 21 21 25 18 7 1 6 10 11 15 12 9 9 9 9 7 4 8 6
10 13 19 18 18 17 15 12 10 12 16 18 18 23 22 23 10 2 5 9 10 12 13 11 8 6 8 9 9 10 11 11
18 17 16 14 13 11 9 10 11 14 18 20 23 26 23 17 10 9 5 11 9 9 10 10 9 10 11 12 14 14 11 10
Wind_Direction
161 162 162 161 161 159 155 152 153 145 133 122 116 117 103 94 86 77 75 69 61 58 50 48 45 36 30 26 24 22 10 355
168 170 170 170 170 164 159 160 153 148 140 131 123 115 105 98 87 75 70 64 59 47 45 42 40 30 22 16 13 14 14 14
178 178 179 178 174 167 166 159 158 157 148 136 136 128 117 98 78 62 57 45 32 11 11 11 10 15 13 4 0 357 354 355
184 183 181 181 175 169 167 165 162 157 153 150 151 144 125 104 94 64 49 3 354 340 342 343 337 341 349 348 342 339 332 331
185 184 185 179 176 174 173 173 169 165 167 168 170 159 137 116 101 60 33 14 9 4 4 1 354 348 344 343 333 324 317 316
184 185 185 182 183 185 177 179 183 181 182 175 175 170 146 138 127 52 16 360 356 353 351 345 343 342 348 353 354 351 338 327
191 190 190 186 191 195 191 196 198 196 204 200 197 217 211 180 101 25 350 344 342 345 345 341 338 341 342 344 7 14 10 357
198 200 201 203 222 222 223 223 224 224 230 235 251 274 263 277 314 12 344 352 349 345 340 338 344 345 349 0 3 7 5 0
206 201 203 211 250 252 250 267 254 244 242 248 259 278 225 158 115 358 351 347 338 335 341 349 354 5 3 353 350 349 347 349
197 190 158 88 30 243 225 224 264 237 140 120 122 116 95 33 6 1 352 351 350 359 7 6 10 5 356 351 345 342 343 343
166 155 141 158 241 246 131 87 94 102 109 99 71 46 17 2 351 349 356 8 22 29 25 16 9 354 344 343 331 334 335 353
139 140 134 171 134 119 110 103 87 80 67 40 11 0 347 340 350 6 12 4 5 4 4 5 8 356 344 331 335 335 352 12
120 126 146 141 121 108 103 101 127 121 66 27 11 6 4 2 15 13 7 2 8 9 7 9 3 359 344 340 331 218 334 357
127 127 122 126 113 102 156 153 151 132 92 46 40 31 23 23 14 8 3 357 351 0 8 8 4 4 346 318 330 300 251 318
125 127 127 123 109 101 105 135 185 217 350 47 54 34 17 4 12 3 346 326 322 349 359 360 4 353 8 3 335 279 336 306
113 115 111 101 97 71 336 271 240 208 130 85 45 13 359 344 327 321 316 298 326 3 6 4 8 10 347 318 314 301 305 307
105 93 91 77 20 350 339 346 67 119 108 43 346 333 335 320 306 317 300 319 3 6 13 5 355 342 336 329 327 306 292 301
113 99 57 46 41 36 35 43 55 19 306 301 320 332 330 323 310 306 72 12 7 4 359 356 1 353 343 339 332 318 305 302
98 87 74 63 55 51 44 30 6 346 334 321 315 321 317 312 297 152 59 22 1 352 347 330 323 341 337 326 315 311 312 314
93 85 79 64 55 45 25 359 336 326 324 318 309 309 303 294 215 195 198 321 335 335 294 298 302 321 303 297 302 302 296 294